Погода в Канту

Италия     45°44′09″N   9°07′41″E
темп.,
°C
ветер,
м/с
пор.,
м/с
влажн.,
%
обл.,
%
осадки,
мм/ч
давл.,
гПа
погр.,
м
10 мая, пн
пн1023:00+15св1184100 0.6 101816
02:00+15св118578 0.7 101719
05:00+14св118698 0.0 101632
08:00+14в118377 0.0 1017122
11:00+18ююв235924 0.0 1016822
14:00+20ююв2454100 0.0 10151262
17:00+20юв3457100 0.0 10141043
20:00+17в2682100 1.3 1012225
11 мая, вт
вт1123:00+15юв2794100 2.9 1014583
02:00+15в279091 4.4 1012287
05:00+13юв31098100 3.4 1012621
08:00+13юв2798100 7.3 1011451
11:00+12юв31197100 6.1 1011781
14:00+12юв41093100 10.8 1010916
17:00+12ссв1295100 8.2 1009229
20:00+12сз1296100 11.1 1007116
12 мая, ср
ср1223:00+12с1296100 8.0 1008108
02:00+10ссз2694100 11.5 1007283
05:00+10с2493100 1.8 1006152
08:00+11з1190100 2.1 100590
11:00+15зюз1265100 0.0 1005855
14:00+16ююз3362100 0.2 1004879
17:00+14юв2385100 1.8 1003188
20:00+13всв128999 2.4 100370
13 мая, чт
чт1323:00+11ссв2384100 0.4 100475
02:00+9с248297 0.4 100476
05:00+9ссв2276100 0.0 100349
08:00+11с1267100 0.0 100395
11:00+15ююз2249100 0.0 1003754
14:00+17ююз3246100 0.0 10021006
17:00+18ююз2245100 0.2 10021467
20:00+15юв2467100 0.4 1003151
14 мая, пт
пт1423:00+12всв1283100 0.3 1006118
02:00+11с237493 0.3 1007110
05:00+9с2269100 0.0 100746
08:00+11с016192 0.0 1008193
11:00+14ю2167100 0.1 1009719
14:00+16ююз2169100 1.0 1009932
17:00+15ююз2273100 2.2 1009677
20:00+13ю1188100 5.4 101042